Tracking 18840 objects as of 18-November-2017
HD Live streaming from Space Station
objects crossing your sky now

FENGYUN 1C DEB

Track FENGYUN 1C DEB now!
10-day predictions


NORAD ID: 35177
Int'l Code: 1999-025DNH
Perigee: 818.1 km
Apogee: 879.5 km
Inclination: 98.9 °
Period: 101.8 minutes
Semi major axis: 7219 km
RCS: 0.0079 m2 (small)
Launch date: May 10, 1999
Source: People's Republic of China (PRC)
Launch site: Taiyaun Space Center, China (TSC)

Note: This is SATELLITE DEBRIS
aabbcc
Your satellite tracking list
Your tracking list is empty




NASA's NSSDC Master Catalog

Two Line Element Set (TLE):
1 35177U 99025DNH 17321.41917917  .00000682  00000-0  37115-3 0  9997
2 35177  98.8651  29.6590 0042508 241.7012 180.7158 14.15184965523621
Source of the keplerian elements: AFSPC